Date,TemperatureHighF,TemperatureAvgF,TemperatureLowF,DewpointHighF,DewpointAvgF,DewpointLowF,HumidityHigh,HumidityAvg,HumidityLow,PressureMaxIn,PressureMinIn,WindSpeedMaxMPH,WindSpeedAvgMPH,GustSpeedMaxMPH,PrecipitationSumIn
2013-1-1,48,46,45,44,37,28,96,72,48,30.00,29.82,11,0,11,0.00
2013-1-2,45,39,36,44,36,32,97,89,71,30.12,29.88,10,1,10,0.00
2013-1-3,40,35,28,34,26,21,91,70,48,30.16,30.08,11,0,11,0.00
2013-1-4,47,37,26,35,26,24,97,69,43,30.17,30.05,12,1,12,0.00
2013-1-5,51,39,28,33,28,22,84,65,40,30.29,30.12,10,1,10,0.00
2013-1-6,49,44,38,39,36,33,90,76,62,30.18,29.96,8,0,8,0.00
2013-1-7,51,40,30,39,31,26,95,72,43,30.37,30.05,18,1,18,0.00
2013-1-8,58,43,27,48,37,26,97,82,58,30.39,30.29,9,0,9,0.00
2013-1-9,70,54,36,53,46,36,98,77,49,30.34,30.21,11,0,11,0.00
2013-1-10,57,49,36,50,36,29,92,65,36,30.48,30.29,21,1,21,0.00
2013-1-11,60,50,34,60,47,31,98,90,78,30.42,30.03,10,1,10,0.00
2013-1-12,60,56,51,60,55,51,99,96,87,30.08,30.01,6,0,6,0.00
2013-1-13,66,55,46,62,54,46,100,97,84,30.08,29.98,10,1,10,0.00
2013-1-14,71,61,47,62,57,45,99,89,67,30.12,30.00,19,1,19,0.00
2013-1-15,49,46,44,48,45,43,99,97,92,30.16,30.00,20,2,20,0.00
2013-1-16,48,45,43,48,45,43,100,100,99,30.00,29.88,11,1,11,0.00
2013-1-29,73,60,49,56,51,47,96,74,52,30.08,29.99,7,1,13,0.00
2013-1-30,74,66,53,63,60,50,97,81,63,30.01,29.41,23,7,33,0.00
2013-1-31,69,51,36,63,33,18,88,52,27,29.91,29.26,28,6,35,0.33
2013-2-1,44,35,26,28,14,1,75,44,22,30.28,29.75,30,4,30,0.00
2013-2-2,40,31,21,25,13,4,75,49,26,30.31,29.92,12,1,12,0.00
2013-2-3,44,38,33,34,30,25,92,72,51,29.94,29.74,12,1,12,0.03
2013-2-4,45,37,26,29,22,17,83,56,34,30.05,29.85,16,2,16,0.00
2013-2-5,59,47,39,35,32,29,79,58,37,29.91,29.77,11,1,11,0.00
2013-2-6,58,43,34,39,34,30,91,71,44,30.24,29.85,12,1,12,0.00
2013-2-7,51,43,34,43,36,30,95,77,59,30.30,29.99,18,1,18,0.08
2013-2-8,52,46,43,47,43,29,100,88,58,29.99,29.52,32,7,32,1.84
2013-2-9,46,39,30,29,24,20,78,56,36,30.28,29.82,24,6,24,0.00
2013-2-10,49,38,25,38,27,20,88,68,37,30.41,30.22,10,1,10,0.00
2013-2-11,63,57,43,60,54,38,99,90,79,30.22,29.74,16,3,16,0.08
2013-2-12,62,55,47,55,37,26,83,54,26,29.93,29.74,17,2,17,0.00
2013-2-13,50,48,46,47,45,41,98,90,76,29.87,29.49,14,1,14,0.10
2013-2-14,50,42,36,45,36,33,98,79,55,30.00,29.63,20,2,20,0.01
2013-2-15,62,45,32,44,34,30,99,72,32,30.00,29.86,13,1,13,0.00
2013-2-19,56,51,46,51,47,41,89,84,77,29.79,29.72,7,3,5,0.05
2013-2-20,49,42,33,41,22,12,81,48,24,30.03,29.79,11,3,2,0.00
2013-2-21,44,36,25,24,20,18,81,54,38,30.20,30.03,13,3,0,0.00
2013-2-22,45,40,35,41,30,21,96,71,54,30.26,30.06,6,1,10,0.08
2013-2-23,47,45,42,47,45,42,100,99,97,30.05,29.72,6,2,0,0.68
2013-2-24,54,46,40,48,42,29,100,86,63,29.97,29.68,14,2,0,0.10
2013-2-25,43,37,30,29,26,23,87,65,51,30.14,29.97,9,1,2,0.00
2013-2-26,64,47,30,64,46,26,100,94,82,30.09,29.45,23,2,0,0.03
2013-2-27,63,53,42,63,45,38,100,76,47,29.63,29.46,10,2,0,0.20
2013-2-28,52,45,38,42,34,26,93,67,37,29.68,29.55,12,2,0,0.03
2013-3-1,51,42,33,32,28,26,80,60,42,29.78,29.67,14,2,0,0.00
2013-3-2,42,39,32,28,25,23,75,58,48,29.79,29.72,9,2,4,0.00
2013-3-3,43,36,31,27,22,19,79,56,42,29.81,29.71,15,4,3,0.02
2013-3-4,46,38,31,22,18,14,65,46,28,29.94,29.81,14,4,0,0.28
2013-3-5,54,38,25,41,27,20,93,67,29,30.02,29.64,9,1,4,0.11
2013-3-6,48,41,37,48,39,34,99,92,76,29.74,29.21,24,7,25,0.91
2013-3-7,51,44,40,35,30,27,80,59,42,30.02,29.74,19,7,0,0.00
2013-3-8,48,43,38,31,28,24,68,56,47,30.09,29.97,22,8,12,0.00
2013-3-9,58,45,34,30,27,19,74,51,24,30.21,30.08,15,4,9,0.00
2013-3-10,62,47,28,43,34,22,96,65,26,30.24,30.19,5,1,8,0.00
2013-3-11,65,51,35,53,45,34,100,81,61,30.20,29.93,11,3,0,0.00
2013-3-12,68,60,50,63,56,42,97,87,74,29.93,29.64,16,5,0,0.50
2013-3-13,57,49,40,43,31,23,78,53,28,29.94,29.80,12,4,0,0.00
2013-3-14,50,42,33,26,19,15,61,41,25,30.07,29.94,14,4,0,0.00
2013-3-15,58,45,27,34,25,18,84,51,25,30.05,29.77,10,1,3,0.00
2013-3-16,75,57,48,53,44,34,94,65,41,29.80,29.53,7,1,0,0.18
2013-3-17,53,43,39,52,40,34,96,88,82,30.15,29.71,8,2,0,0.01
2013-3-18,50,43,38,50,42,34,99,96,81,30.15,29.79,7,2,0,0.08
2013-3-19,64,52,43,48,40,14,100,73,20,29.85,29.68,8,2,0,0.09
2013-3-20,55,47,36,31,16,7,71,32,18,29.98,29.72,11,2,0,0.00
2013-3-21,40,36,31,32,26,12,91,68,40,29.82,29.59,20,4,0,0.00
2013-3-22,51,38,25,22,14,10,64,40,22,29.94,29.82,13,2,0,0.00
2013-3-23,56,40,27,35,26,21,87,62,25,29.95,29.82,5,0,0,0.00
2013-3-24,44,38,32,40,35,30,97,90,70,29.89,29.49,12,2,0,0.61
2013-3-25,47,40,36,40,35,30,97,83,59,29.63,29.35,17,5,0,0.07
2013-3-26,52,43,33,34,30,27,82,63,44,29.91,29.63,12,3,1,0.00
2013-3-27,54,44,36,30,26,22,74,52,31,30.04,29.91,11,4,10,0.00
2013-3-28,54,42,34,30,16,-100,72,44,33,30.14,30.00,14,-84,0,0.00
2013-3-29,56,35,38,34,-6,-100,75,38,33,30.19,30.08,12,-260,0,0.00
2013-3-30,65,52,36,44,34,26,96,56,25,30.13,30.04,9,1,12,0.00
2013-3-31,67,53,41,56,46,34,95,78,62,30.07,29.70,12,1,6,0.20
2013-4-1,72,61,50,56,47,36,97,66,28,29.85,29.66,12,2,0,0.00
2013-4-2,59,48,38,37,28,19,85,49,24,30.04,29.86,11,2,0,0.00
2013-4-3,56,45,36,37,28,18,93,55,24,30.26,30.03,8,2,6,0.00
2013-4-4,53,43,33,42,31,23,96,65,38,30.31,29.89,7,1,0,0.40
2013-4-5,60,49,42,46,42,34,99,80,38,29.90,29.66,14,4,0,0.43
2013-4-6,55,45,36,40,34,26,93,68,36,30.25,29.90,13,2,0,0.00
2013-4-7,69,55,35,50,41,34,100,65,31,30.23,30.02,9,3,0,0.00
2013-4-8,78,68,55,58,54,50,89,64,39,30.06,29.95,8,2,0,0.00
2013-4-9,86,74,62,62,58,54,87,60,35,30.05,29.94,8,2,0,0.00
2013-4-10,89,76,63,64,59,56,81,58,35,29.97,29.81,10,2,0,0.00
2013-4-11,83,74,63,64,60,55,84,63,42,29.88,29.73,9,3,0,0.00
2013-4-12,77,71,68,71,67,64,96,87,73,29.75,29.54,14,5,0,0.72
2013-4-13,70,58,52,67,48,41,92,70,47,29.89,29.58,27,4,0,0.00
2013-4-14,74,60,47,52,45,34,98,63,29,30.06,29.90,10,1,0,0.00
2013-4-15,67,61,57,57,53,47,83,75,65,30.17,30.02,12,2,0,0.00
2013-4-16,71,64,59,58,56,54,91,75,62,30.23,30.14,15,4,0,0.00
2013-4-17,83,70,56,64,60,55,98,73,47,30.15,30.03,9,2,13,0.00
2013-4-18,77,68,60,63,60,58,99,78,53,30.16,30.00,11,3,0,0.00
2013-4-19,81,72,63,69,65,61,96,81,58,30.00,29.69,18,5,0,0.43
2013-4-20,66,56,48,65,48,34,98,78,42,30.19,29.72,15,2,0,0.34
2013-4-21,56,48,42,45,38,32,96,68,48,30.46,30.19,12,2,0,0.00
2013-4-22,53,48,42,50,44,33,96,86,72,30.43,30.18,14,4,0,0.17
2013-4-23,57,51,44,50,48,42,98,89,72,30.17,30.05,16,4,0,0.02
2013-4-24,74,59,43,59,52,41,100,80,54,30.08,29.87,9,2,6,0.00
2013-4-25,65,58,44,59,47,35,94,69,38,30.23,29.92,10,2,0,0.00
2013-4-26,70,53,39,52,41,35,100,69,29,30.34,30.20,7,1,0,0.00
2013-4-27,69,55,42,49,41,37,97,63,33,30.32,30.23,7,1,0,0.00
2013-4-28,66,57,42,58,47,39,97,71,54,30.23,30.06,12,2,11,0.04
2013-4-29,66,60,57,63,60,57,99,97,90,30.06,29.91,10,1,0,1.20
2013-4-30,68,60,57,61,58,56,100,94,72,30.06,29.94,11,2,9,0.01
2013-5-1,62,58,54,59,56,53,99,93,81,30.27,30.07,10,2,0,0.08
2013-5-2,67,58,50,55,52,48,95,81,61,30.29,30.20,10,2,0,0.00
2013-5-3,64,55,49,57,49,43,99,82,48,30.23,30.14,13,2,9,0.00
2013-5-4,61,54,50,53,50,46,96,86,71,30.16,30.06,8,2,0,0.00
2013-5-5,60,54,49,52,50,47,94,86,73,30.06,30.00,8,2,0,0.00
2013-5-6,74,63,54,63,58,53,99,85,60,30.01,29.87,15,3,8,0.03
2013-5-7,76,65,56,64,60,54,99,83,60,29.89,29.77,11,2,0,0.25
2013-5-8,74,62,52,63,57,51,98,85,48,29.94,29.85,10,0,0,0.25
2013-5-9,79,67,57,61,58,53,99,75,42,29.96,29.86,6,0,0,0.00
2013-5-10,86,73,59,64,59,56,94,65,37,29.97,29.88,10,1,1,0.00
2013-5-11,83,73,67,70,65,61,98,77,56,29.89,29.69,10,2,0,0.94
2013-5-12,71,66,55,67,59,49,99,81,48,29.93,29.67,7,1,0,0.10
2013-5-13,66,58,50,52,40,31,91,56,30,30.05,29.93,9,1,0,0.00
2013-5-14,66,56,43,49,39,28,91,56,26,30.14,30.03,7,1,0,0.00
2013-5-15,85,71,57,62,55,47,74,58,43,30.03,29.74,9,1,0,0.00
2013-5-16,89,78,68,63,60,52,79,55,29,29.84,29.75,6,0,0,0.00
2013-5-17,81,71,62,63,55,44,91,59,27,30.07,29.84,6,1,0,0.00
2013-5-18,72,67,60,68,62,55,97,85,74,30.14,30.05,13,2,6,0.87
2013-5-19,80,72,68,72,68,66,100,88,65,30.10,30.02,8,1,0,0.35
2013-5-20,81,72,68,71,68,66,96,88,68,30.06,29.96,5,0,0,0.24
2013-5-21,82,73,67,71,69,67,98,88,66,29.98,29.86,4,0,0,0.40
2013-5-22,83,75,67,71,68,66,97,80,59,29.94,29.85,10,1,1,29.02
2013-5-23,76,72,69,73,70,68,98,92,80,29.92,29.73,9,2,0,26.79
2013-5-24,74,64,54,68,57,39,97,82,56,30.03,29.68,14,3,0,0.32
2013-5-25,67,57,48,46,38,31,83,52,27,30.11,30.02,14,4,0,0.00
2013-5-26,72,59,45,52,43,34,97,61,26,30.16,30.07,7,1,0,0.00
2013-5-27,78,65,49,56,51,46,97,65,33,30.20,30.11,8,0,4,0.00
2013-5-28,82,73,61,64,61,57,91,69,46,30.17,30.06,10,1,0,0.00
2013-5-29,86,76,66,67,65,63,92,69,49,30.14,30.07,9,0,0,0.00
2013-5-30,86,77,66,70,65,62,92,69,45,30.19,30.09,5,0,0,0.00
2013-5-31,88,78,69,71,68,63,97,72,46,30.15,30.02,7,1,0,0.00
2013-6-1,88,79,70,72,69,65,93,72,47,30.06,29.94,7,1,0,0.00
2013-6-2,86,79,70,69,66,63,90,68,46,29.96,29.82,10,1,0,0.00
2013-6-3,78,74,71,73,70,66,94,86,73,29.86,29.75,9,1,0,0.00
2013-6-4,76,71,60,70,60,49,96,72,40,30.06,29.83,12,2,0,0.00
2013-6-5,76,66,54,62,54,47,98,70,38,30.08,30.02,8,1,3,0.00
2013-6-6,78,69,58,69,63,56,98,82,58,30.02,29.79,8,2,0,0.01
2013-6-7,84,77,70,78,73,68,99,88,71,29.80,29.38,13,5,23,0.52
2013-6-8,84,75,70,74,70,67,97,85,69,30.02,29.70,6,0,9,0.35
2013-6-9,82,74,66,75,70,66,98,87,65,30.10,30.02,9,1,0,0.00
2013-6-10,83,76,72,78,72,69,98,88,71,30.04,29.83,11,1,1,1.12
2013-6-11,84,76,70,72,68,64,97,78,53,29.85,29.74,9,0,0,0.03
2013-6-12,90,79,66,73,68,64,96,71,46,29.85,29.74,2,0,0,0.00
2013-6-13,94,81,70,76,71,63,91,74,41,29.76,29.43,12,1,7,0.10
2013-6-14,71,68,60,67,59,52,92,74,53,29.90,29.54,19,3,0,0.00
2013-6-15,83,71,59,67,60,55,88,70,39,30.00,29.90,2,0,0,0.00
2013-6-16,86,77,66,66,63,57,92,63,47,30.01,29.89,4,0,0,0.00
2013-6-17,86,76,72,72,68,65,92,78,61,29.95,29.86,2,0,0,0.13
2013-6-18,83,76,71,75,71,69,97,87,71,29.88,29.67,7,0,0,0.45
2013-6-19,75,70,64,70,65,61,98,86,70,30.06,29.72,8,1,0,0.00
2013-6-20,77,68,60,64,58,49,99,75,39,30.18,30.07,12,1,1,0.00
2013-6-21,78,68,62,70,66,60,97,91,74,30.18,30.14,10,1,0,0.11
2013-6-22,82,72,63,74,68,62,99,89,73,30.15,30.09,8,1,0,0.02
2013-6-23,86,78,72,75,72,71,99,84,61,30.12,30.04,7,0,0,0.01
2013-6-24,86,79,73,75,73,71,96,83,66,30.11,29.99,4,0,0,0.00
2013-6-25,90,81,72,75,72,68,94,75,58,30.02,29.87,4,0,0,0.00
2013-6-26,90,81,72,74,71,67,93,73,55,29.91,29.78,6,0,0,0.00
2013-6-27,90,79,71,76,71,68,94,78,59,29.81,29.63,8,1,4,0.00
2013-6-28,91,82,74,75,72,68,91,75,52,29.64,29.48,5,0,0,0.04
2013-6-29,84,76,70,75,72,67,97,87,70,29.67,29.49,10,1,0,0.02
2013-6-30,81,78,75,75,74,73,96,88,77,29.83,29.68,9,1,0,0.00
2013-7-1,81,77,74,77,74,72,96,91,81,29.98,29.81,6,2,0,0.24
2013-7-2,86,77,73,76,73,72,99,90,66,30.15,29.97,8,1,0,0.48
2013-7-3,85,78,73,80,75,73,100,92,72,30.20,30.12,8,1,0,0.38
2013-7-4,87,80,74,77,73,69,99,80,59,30.23,30.14,2,0,0,0.00
2013-7-5,89,81,73,76,73,71,98,78,57,30.21,30.09,6,0,0,0.00
2013-7-6,88,80,73,75,72,69,96,77,53,30.18,30.05,3,0,0,0.00
2013-7-7,88,82,73,74,72,68,93,72,53,30.10,29.97,6,0,8,0.00
2013-7-8,84,79,75,75,73,71,90,81,70,30.07,30.00,2,0,0,0.00
2013-7-9,86,80,75,76,74,70,96,82,66,30.08,29.98,5,0,0,0.00
2013-7-10,87,80,75,79,74,70,94,84,70,30.02,29.86,8,1,0,0.36
2013-7-11,87,77,72,76,73,71,100,89,64,29.89,29.82,4,0,0,1.92
2013-7-12,79,75,72,75,73,72,100,95,81,29.94,29.80,4,0,0,0.18
2013-7-13,85,78,71,77,74,71,99,88,70,30.18,29.94,1,0,0,0.15
2013-7-14,87,80,74,77,75,73,98,85,67,30.25,30.17,7,1,0,0.00
2013-7-15,89,79,71,77,73,70,100,84,53,30.24,30.14,5,0,0,0.00
2013-7-16,93,83,75,78,74,70,91,74,49,30.15,30.05,8,0,0,0.00
2013-7-17,93,83,74,77,74,70,98,77,48,30.11,30.03,5,0,0,0.00
2013-7-18,91,82,72,76,73,70,97,76,50,30.05,29.95,5,1,0,0.00
2013-7-19,91,83,76,77,74,73,92,75,59,30.00,29.88,4,0,0,0.00
2013-7-20,88,82,76,75,74,73,92,76,62,29.92,29.81,4,0,1,0.00
2013-7-21,88,82,75,77,74,71,91,76,63,29.89,29.79,6,0,0,0.00
2013-7-22,89,80,77,78,76,74,96,87,63,29.86,29.72,10,0,0,0.14
2013-7-23,88,81,75,76,74,72,96,81,59,29.73,29.59,4,0,0,0.01
2013-7-24,91,82,74,76,73,69,94,77,50,29.74,29.61,4,0,0,0.00
2013-7-25,79,74,70,74,70,68,96,87,78,29.92,29.72,13,2,0,0.02
2013-7-26,83,73,66,69,65,58,98,78,45,30.01,29.91,5,1,0,0.00
2013-7-27,86,76,64,70,64,61,98,70,51,30.00,29.88,8,1,8,0.00
2013-7-28,86,78,70,76,72,67,98,82,61,29.92,29.85,4,0,0,0.08
2013-7-29,83,77,72,75,71,66,97,83,57,30.08,29.91,7,1,0,0.02
2013-7-30,85,75,66,70,63,57,98,71,42,30.14,30.06,4,0,3,0.00
2013-7-31,82,75,68,72,66,62,97,76,52,30.08,29.97,10,2,0,0.00
2013-8-1,81,75,68,75,71,66,99,87,75,29.96,29.77,8,1,0,0.84
2013-8-2,87,76,68,76,71,67,100,85,58,29.91,29.78,7,0,0,0.00
2013-8-3,87,77,72,76,73,69,97,88,63,29.92,29.82,13,0,0,0.16
2013-8-4,80,74,66,74,66,57,100,79,46,29.93,29.78,8,1,0,0.00
2013-8-5,80,71,62,67,62,60,98,75,53,30.00,29.92,6,0,0,0.00
2013-8-6,70,68,66,67,65,61,97,90,81,30.04,29.94,7,1,0,0.30
2013-8-7,84,76,69,73,71,67,98,83,62,30.03,29.97,10,2,0,0.00
2013-8-8,86,78,71,77,73,70,97,87,67,30.01,29.94,8,1,0,0.23
2013-8-9,89,83,76,78,76,74,98,82,66,29.95,29.86,5,0,0,0.00
2013-8-10,90,81,75,79,76,73,98,85,62,30.00,29.90,6,0,0,0.49
2013-8-11,85,78,73,77,75,70,100,92,74,30.02,29.93,6,0,0,0.91
2013-8-12,86,79,72,78,75,72,100,90,75,29.95,29.85,5,0,0,0.00
2013-8-13,89,80,75,77,75,73,99,85,65,29.84,29.68,4,0,0,0.14
2013-8-14,75,72,63,75,61,51,98,71,46,30.00,29.68,11,2,0,0.00
2013-8-15,76,67,60,64,60,57,97,78,55,30.07,29.98,8,0,0,0.00
2013-8-16,74,70,63,68,61,58,93,74,61,30.08,30.00,7,0,0,0.03
2013-8-17,75,72,69,73,70,68,99,95,86,30.12,30.05,7,1,0,0.70
2013-8-18,80,74,69,75,72,66,100,91,74,30.11,29.99,11,1,0,0.41
2013-8-19,75,71,67,72,69,66,97,92,83,30.11,30.00,7,0,0,0.05
2013-8-20,80,74,68,72,70,68,99,89,70,30.11,30.02,5,0,0,0.00
2013-8-21,85,76,68,76,72,67,99,88,68,30.15,30.03,9,1,0,0.00
2013-8-22,87,79,73,75,73,71,98,81,60,30.05,29.88,2,0,0,0.00
2013-8-23,87,76,69,73,71,68,97,86,58,29.97,29.84,7,0,0,0.46
2013-8-24,80,72,66,68,65,61,97,79,56,30.23,29.97,7,1,0,0.00
2013-8-25,77,68,59,63,60,57,98,77,53,30.31,30.20,7,1,0,0.01
2013-8-26,81,68,56,64,57,51,99,71,37,30.24,30.01,1,0,0,0.00
2013-8-27,87,75,64,72,65,56,82,71,54,30.01,29.83,2,0,0,0.00
2013-8-28,84,78,73,76,73,70,95,85,71,29.86,29.75,0,0,0,0.19
2013-8-29,81,75,69,76,71,66,99,88,72,29.92,29.70,8,1,0,0.30
2013-8-30,82,73,66,71,68,65,100,85,62,29.97,29.88,7,1,0,0.01
2013-8-31,86,77,67,75,70,67,100,82,57,29.89,29.78,7,0,0,0.00
2013-9-1,90,79,73,77,74,70,98,85,61,29.83,29.72,6,0,0,0.03
2013-9-2,87,79,72,75,73,71,98,84,62,29.77,29.69,3,0,0,0.05
2013-9-3,88,76,70,78,73,65,99,91,60,29.84,29.71,11,0,0,0.86
2013-9-4,80,73,66,70,68,65,100,85,62,30.00,29.84,6,0,0,0.01
2013-9-5,86,75,65,75,68,64,100,81,51,30.00,29.91,6,0,0,0.00
2013-9-6,79,71,61,69,62,56,97,75,55,30.09,29.97,8,1,0,0.00
2013-9-7,78,67,57,64,58,56,99,76,46,30.06,29.90,6,0,0,0.00
2013-9-8,84,73,61,71,65,58,94,77,53,29.91,29.80,4,0,0,0.00
2013-9-9,82,75,69,72,70,67,99,85,62,30.09,29.91,5,1,0,0.00
2013-9-10,87,76,66,74,69,65,99,80,58,30.15,30.06,6,0,0,0.00
2013-9-11,88,78,70,73,70,68,97,79,57,30.12,29.99,6,0,0,0.00
2013-9-12,88,79,72,72,70,69,95,76,54,30.00,29.69,5,0,0,0.00
2013-9-13,82,75,69,72,67,61,95,77,61,29.77,29.61,11,1,0,0.00
2013-9-14,73,67,58,61,56,52,88,67,50,30.07,29.78,8,2,0,0.00
2013-9-15,76,65,53,60,56,51,99,76,42,30.16,30.06,6,0,2,0.00
2013-9-16,83,69,61,71,63,57,99,83,52,30.09,29.94,9,1,0,0.01
2013-9-17,72,64,57,60,55,50,86,73,59,30.26,30.09,11,2,0,0.00
2013-9-18,74,63,54,58,54,51,96,74,52,30.23,30.11,7,0,0,0.00
2013-9-19,75,63,51,58,54,50,99,76,45,30.12,30.03,5,0,0,0.00
2013-9-20,76,64,55,62,57,54,98,79,56,30.03,29.92,6,0,4,0.00
2013-9-21,82,69,55,70,63,54,99,84,58,29.92,29.66,9,1,0,0.00
2013-9-22,73,69,65,69,64,55,98,83,62,29.79,29.63,12,1,0,0.28
2013-9-23,66,61,54,58,52,48,91,72,58,30.00,29.80,15,1,0,0.00
2013-9-24,71,60,47,57,52,46,99,77,48,30.01,29.88,7,0,0,0.00
2013-9-25,73,61,50,62,54,49,99,79,53,29.89,29.79,7,0,0,0.00
2013-9-26,74,65,58,63,58,57,98,80,56,29.95,29.80,6,0,2,0.00
2013-9-27,72,64,56,59,56,52,98,78,52,30.09,29.94,11,1,0,0.00
2013-9-28,72,64,57,61,58,55,92,80,64,30.14,30.06,8,1,2,0.01
2013-9-29,70,64,55,65,59,54,97,86,63,30.07,29.94,9,1,0,0.12
2013-9-30,73,63,54,62,56,50,100,80,48,29.98,29.91,7,1,0,0.00
2013-10-1,79,66,52,61,57,51,98,76,48,30.02,29.92,5,0,0,0.00
2013-10-2,84,70,59,64,61,56,95,75,44,30.02,29.94,4,0,0,0.00
2013-10-3,84,71,59,67,62,57,98,76,48,30.04,29.98,0,0,0,0.00
2013-10-4,85,75,67,69,66,62,96,76,47,30.04,29.95,2,0,0,0.00
2013-10-5,88,75,64,70,66,63,97,76,45,30.02,29.95,9,0,0,0.00
2013-10-6,85,74,65,72,67,63,98,79,48,30.00,29.91,11,1,0,0.00
2013-10-7,84,75,65,73,70,65,98,85,57,29.91,29.77,10,2,0,1.18
2013-10-8,65,63,61,64,56,50,98,77,62,30.10,29.91,16,3,0,0.02
2013-10-9,65,63,61,65,62,55,100,95,76,30.08,29.88,15,4,0,2.19
2013-10-10,72,69,65,72,69,65,100,100,100,29.87,29.73,12,2,0,1.00
2013-10-11,66,64,63,66,64,63,100,100,100,29.83,29.73,7,1,0,0.04
2013-10-12,71,67,64,71,67,64,100,99,97,29.97,29.80,5,0,1,0.04
2013-10-13,72,68,66,72,67,64,100,96,89,30.12,29.97,12,2,0,0.10
2013-10-14,69,66,62,65,62,59,93,87,75,30.14,30.08,8,2,0,0.00
2013-10-15,68,64,61,65,62,59,98,93,89,30.09,29.97,9,2,0,0.01
2013-10-16,73,67,62,66,63,60,98,87,65,29.96,29.88,6,1,0,0.00
2013-10-17,77,68,59,67,63,59,100,84,64,29.87,29.75,3,0,0,0.00
2013-10-18,70,65,56,66,57,51,91,75,55,29.94,29.76,8,1,0,0.00
2013-10-19,68,63,56,66,62,54,98,95,91,29.92,29.73,7,1,2,0.10
2013-10-20,66,57,45,65,48,38,97,73,45,30.05,29.77,17,2,0,0.00
2013-10-21,66,54,41,52,46,40,100,77,47,30.08,29.93,5,0,0,0.00
2013-10-22,65,58,51,58,54,50,97,89,74,29.93,29.74,3,0,0,0.00
2013-10-23,60,57,51,59,53,41,98,87,67,29.82,29.56,13,1,0,0.02
2013-10-24,56,49,41,40,37,31,90,65,40,30.07,29.83,5,0,0,0.00
2013-10-25,54,47,38,38,33,29,88,63,39,30.25,30.06,12,1,16,0.00
2013-10-26,60,51,33,48,37,32,99,64,39,30.25,29.97,13,1,13,0.00
2013-10-27,64,52,41,45,40,35,99,67,36,30.22,29.93,6,0,13,0.00
2013-10-28,66,55,43,54,48,41,100,80,59,30.18,30.06,3,0,7,0.00
2013-10-29,69,60,49,59,48,42,100,71,39,30.26,30.16,5,1,14,0.00
2013-10-30,72,62,50,60,52,43,100,71,40,30.24,30.09,6,1,9,0.00
2013-10-31,75,66,56,66,60,54,97,81,50,30.13,29.89,18,1,18,0.00
2013-11-1,77,72,68,68,66,64,98,80,64,29.88,29.60,12,2,21,0.45
2013-11-2,75,67,59,69,59,46,99,77,50,29.79,29.55,8,1,9,0.02
2013-11-3,68,55,42,53,42,34,78,61,52,30.27,29.60,18,3,19,0.00
2013-11-4,52,47,38,45,37,25,93,69,40,30.47,29.91,9,2,18,0.00
2013-11-5,63,55,48,53,50,46,94,82,63,30.45,30.36,7,1,0,0.00
2013-11-6,68,58,46,59,54,45,100,85,62,30.36,30.04,6,1,0,0.00
2013-11-7,67,62,51,66,59,40,100,90,62,30.03,29.77,8,1,0,0.36
2013-11-8,54,50,37,40,30,26,91,46,35,30.23,29.96,18,4,20,0.00
2013-11-9,57,47,33,46,35,28,99,67,37,30.29,30.05,9,1,16,0.00
2013-11-10,69,55,43,42,37,30,84,55,28,30.14,29.89,10,1,0,0.00
2013-11-11,56,48,38,41,36,30,93,64,47,30.25,30.04,8,1,0,0.00
2013-11-12,58,44,36,44,34,20,94,69,45,30.25,29.93,18,4,0,0.01
2013-11-13,42,31,33,24,-3,-100,70,40,40,30.38,30.26,15,-185,0,0.00
2013-11-14,56,32,30,28,-16,-100,87,29,25,30.36,30.24,3,-322,0,0.00
2013-11-15,64,50,35,48,36,25,77,59,34,30.27,30.15,3,0,0,0.00
2013-11-16,64,56,51,58,54,48,98,91,75,30.21,30.11,8,0,15,0.11
2013-11-17,70,56,52,66,56,51,100,98,75,30.13,29.82,6,0,7,0.00
2013-11-18,73,68,54,68,55,31,99,69,29,29.82,29.67,15,2,18,0.07
2013-11-19,57,48,39,34,32,27,81,55,36,30.22,29.79,21,3,0,0.00
2013-11-20,52,47,42,43,37,29,76,68,58,30.38,30.22,16,2,0,0.00
2013-11-21,61,54,48,53,49,43,95,84,75,30.39,30.31,5,0,0,0.00
2013-11-22,72,61,46,62,54,46,100,81,55,30.30,29.92,7,0,10,0.01
2013-11-23,64,52,39,62,42,21,97,71,43,30.05,29.91,18,2,21,0.03
2013-11-24,44,33,28,24,9,1,56,37,26,30.43,30.02,24,8,30,0.00
2013-11-25,41,33,25,25,10,3,66,40,27,30.52,30.28,13,4,24,0.00
2013-11-26,66,50,35,64,45,26,99,83,68,30.31,29.52,13,3,0,0.29
2013-11-27,68,50,38,67,48,32,97,92,77,29.95,29.36,19,6,0,0.88
2013-11-28,40,34,27,31,21,16,84,60,39,30.42,29.96,8,2,0,0.00
2013-11-29,46,35,24,34,26,22,94,72,49,30.57,30.40,11,2,0,0.00
2013-11-30,51,42,35,40,35,26,93,77,65,30.56,30.27,7,1,0,0.00
2013-12-1,55,43,35,44,39,33,94,86,53,30.26,29.95,6,0,11,0.00
2013-12-2,56,42,31,47,37,30,99,82,51,29.94,29.74,5,0,0,0.00
2013-12-3,60,46,33,45,38,32,99,76,42,29.94,29.77,4,0,0,0.00
2013-12-4,62,54,47,57,51,40,97,88,73,30.02,29.94,5,1,0,0.00
2013-12-5,67,61,53,62,58,52,100,92,80,30.06,29.95,7,1,0,0.00
2013-12-6,79,71,54,65,63,50,88,78,58,29.98,29.88,10,3,17,0.00
2013-12-7,53,44,40,49,42,31,98,91,69,30.40,29.95,15,4,22,0.13
2013-12-8,43,40,37,43,36,29,100,89,65,30.40,30.15,9,3,0,0.49
2013-12-9,47,42,38,47,42,38,100,100,99,30.15,29.98,6,1,0,0.12
2013-12-10,47,41,34,47,41,33,100,99,93,30.20,29.82,10,2,0,0.54
2013-12-11,46,37,27,34,28,21,97,74,41,30.36,30.18,6,0,0,0.00
2013-12-12,40,33,25,30,25,22,87,72,56,30.31,30.15,11,1,0,0.00
2013-12-13,48,35,25,29,22,18,91,64,32,30.28,30.17,7,1,0,0.00
2013-12-14,61,46,31,60,38,27,98,77,61,30.25,29.61,13,2,13,0.69
2013-12-15,60,48,40,60,43,31,98,85,61,30.15,29.56,8,1,14,0.01
2013-12-16,50,39,30,34,31,27,92,74,50,30.10,29.91,7,0,0,0.00
2013-12-17,60,47,36,42,39,35,95,76,44,30.07,29.77,12,2,0,0.00
2013-12-18,46,40,30,39,30,23,90,70,40,30.19,29.85,11,2,0,0.00
2013-12-19,60,45,28,30,27,23,88,55,26,30.22,30.11,5,1,0,0.00
2013-12-20,69,57,44,57,48,31,87,72,49,30.16,30.03,6,2,0,0.00
2013-12-21,72,63,54,64,58,53,96,84,61,30.08,29.98,10,3,18,0.00
2013-12-22,80,69,64,67,65,59,95,87,60,30.03,29.95,13,4,19,0.00
2013-12-23,74,65,45,69,62,43,96,90,73,30.05,29.91,20,5,0,0.44
2013-12-24,44,41,32,43,32,10,96,71,39,30.34,30.02,15,5,0,0.21
2013-12-25,38,31,27,25,20,10,90,64,39,30.46,30.30,9,2,0,0.00
2013-12-26,46,35,28,31,27,25,96,77,45,30.29,30.14,5,0,0,0.00
2013-12-27,50,38,27,39,28,24,99,71,36,30.37,30.26,4,0,12,0.00
2013-12-28,59,39,27,38,29,24,97,72,27,30.31,30.09,6,0,8,0.00
2013-12-29,66,53,44,65,51,36,98,90,69,30.09,29.49,15,3,0,0.53
2013-12-30,54,46,38,46,41,35,98,82,58,30.05,29.80,6,1,0,0.00
2013-12-31,50,41,35,36,31,24,90,68,38,30.25,30.03,8,1,0,0.01
2014-1-1,52,40,30,41,32,27,96,77,42,30.34,30.06,7,1,0,0.00
2014-1-2,47,45,43,43,39,36,97,81,70,30.06,29.37,6,0,0,0.40